Regional Weather Roundup
Issued by NWS

Home | Current Version | Previous Version | Graphics & Text | Print | Product List | Glossary Off
Versions: 1 2 3 4 5 6 7 8 9 10 11 12 13 14 15 16 17 18 19 20 21 22 23 24 25 26 27 28 29 30 31 32 33 34 35 36 37 38 39 40 41 42 43 44 45 46 47 48 49 50

000
ASUS43 KTOP 030208
RWRKS

WEATHER ROUNDUP FOR KANSAS
NATIONAL WEATHER SERVICE GOODLAND KS
900 PM CDT WED SEP 02 2015

NOTE:  "FAIR" INDICATES FEW OR NO CLOUDS BELOW 12,000 FEET WITH NO
SIGNIFICANT WEATHER AND/OR OBSTRUCTIONS TO VISIBILITY.

KSZ001>006-013>018-027>032-041>047-030300-
NORTHWEST KANSAS

CITY           SKY/WX    TMP DP  RH WIND       PRES   REMARKS
GOODLAND       PTCLDY    77  50  38 SW6       29.88R
HAYS           CLEAR     90  55  31 S17       29.83R
HILL CITY      CLEAR     88  58  36 S7        29.81R
RUSSELL        CLEAR     89  58  34 S18       29.82R
$$

KSZ061>065-074>080-084>089-030300-
SOUTHWEST KANSAS

CITY           SKY/WX    TMP DP  RH WIND       PRES   REMARKS
DODGE CITY     PTCLDY    84  55  36 S18       29.89R
ELKHART          N/A     78  56  46 SE10        N/A
GARDEN CITY    MOCLDY    82  56  40 S12       29.87R
GREAT BEND     PTCLDY    86  59  39 S15G21    29.85R
LIBERAL        MOCLDY    82  52  34 S13       29.92R
PRATT          CLEAR     86  54  32 MISG      29.91R
$$

KSZ066>073-081>083-090>101-030300-
SOUTHEAST KANSAS

CITY           SKY/WX    TMP DP  RH WIND       PRES   REMARKS
CHANUTE        CLEAR     76  70  82 SE7       29.95R
COFFEYVILLE    CLEAR     77  70  79 S7        29.94R
HUTCHINSON     CLEAR     83  63  50 SE13      29.89R
MEDICINE LODGE   N/A     86  62  44 S8        29.89R
NEWTON         CLEAR     81  63  54 S13       29.94R
PARSONS        LGT RAIN  77  71  82 SE3       29.96R
WICHITA INTL   PTCLDY    83  64  52 SE12      29.90R
WICHITA JABRA    N/A     82  66  58 S15       29.91R
WINFIELD       CLEAR     81  67  62 SE12      29.93R
$$

KSZ007>012-019>026-033>040-048>060-102>105-030300-
NORTHEAST KANSAS

CITY           SKY/WX    TMP DP  RH WIND       PRES   REMARKS
CONCORDIA      CLEAR     83  64  52 S13       29.84R
EMPORIA        CLEAR     79  68  69 S12       29.92R
LAWRENCE       CLEAR     76  69  79 SE6       29.93R
MANHATTAN      CLEAR     82  67  60 S7        29.87R
MARYSVILLE     CLEAR     81  66  61 S7        29.87R
OLATHE IND     CLEAR     77  70  79 SE6       29.96R
OLATHE EXE     CLEAR     75  69  81 S7        29.95R
SALINA         CLEAR     86  64  47 SE14      29.85R
TOPEKA BILLARD CLEAR     80  69  69 SE8       29.92R
TOPEKA FORBES  CLEAR     79  70  74 SE8       29.92R
$$


USA.gov is the U.S. government's official web portal to all federal, state and local government web resources and services.